[[{"header":{"parameterUnit":"m.s-1","parameterCategory":1,"la1":30.2991,"la2":30.254,"lo1":-89.0895,"lo2":-89.0444,"dy":0.0017,"dx":0.0017,"nx":28,"ny":28,"refTime":"2025-01-09T09:00:00:Z","depth":0,"parameterNumber":2,"parameterNumberName":"U-component_of_WINDS"},"data":[0,0,0,0,0,0,0,0,0,0,0,0,0,0,0,0,0,0,0,0,0,0,0,0,0,0,0,0,0,0,0,0,0,0,0,0,0,0,0,0,0,0,0,0,0,0,0,0,0,0,0,0,0,0,0,0,0,0,5.1013,5.1014,0,5.1101,5.1102,5.1103,5.1045,5.1042,5.104,5.1037,5.1126,5.113,5.1135,0,0,0,0,0,0,0,0,0,0,0,0,0,5.0795,5.0799,5.1013,5.1014,5.1015,5.1101,5.1102,5.1103,5.1045,5.1042,5.1039,5.1036,5.1124,5.113,5.1135,0,0,0,0,0,0,0,0,0,0,0,0,0,5.0887,5.0801,5.1013,5.0997,5.0996,5.11,5.1102,5.1103,5.1046,5.1042,5.1038,5.1034,5.1122,5.1129,5.1136,5.1261,0,0,5.1158,5.1161,0,0,0,0,0,0,0,0,5.0882,5.0895,5.0998,5.0998,5.0998,5.1058,5.1057,5.1156,5.1047,5.1027,5.1037,5.1033,5.1106,5.1114,5.114,5.1265,5.1268,5.1159,5.1163,5.1166,5.1169,0,0,0,0,0,0,0,5.0876,5.0891,5.1048,5.1,5.0999,5.0985,5.0994,5.1076,5.1088,5.1029,5.1025,5.1036,5.1105,5.1133,5.1141,5.127,5.1159,5.1165,5.117,5.1173,5.1503,5.1507,0,0,0,0,0,0,5.0871,5.0886,5.1045,5.105,5.0929,5.0992,5.1002,5.1043,5.1087,5.109,5.1039,5.1033,5.1122,5.1133,5.1144,5.1294,5.1166,5.1173,5.1177,5.1499,5.1504,5.1509,0,0,0,0,0,0,5.0866,5.0885,5.1041,5.0967,5.0986,5.1,5.1046,5.1046,5.1074,5.1095,5.1097,5.1065,5.112,5.1134,5.1233,5.1296,5.1176,5.1183,5.1494,5.15,5.1507,5.1593,0,0,0,0,0,0,5.086,5.0884,5.0931,5.0969,5.099,5.1129,5.105,5.1051,5.1087,5.1079,5.112,5.1122,5.1118,5.1222,5.124,5.1304,5.1189,5.1488,5.1497,5.1505,5.1585,5.1602,5.1617,0,0,0,0,0,5.0853,5.0952,5.0934,5.0954,5.105,5.1132,5.1144,5.1137,5.1092,5.114,5.1154,5.1121,5.1286,5.1233,5.1252,5.1319,5.1484,5.1494,5.1504,5.1578,5.1599,5.1617,0,0,0,0,0,0,5.092,5.0956,5.0937,5.1051,5.1089,5.1122,5.1182,5.116,5.1211,5.1202,5.119,5.12,5.1303,5.1321,5.1261,5.1443,5.1378,5.1392,5.1428,5.1448,5.1463,5.1457,5.1195,0,0,0,0,0,5.0949,5.1013,5.1041,5.1139,5.1159,5.1168,5.1203,5.1195,5.1234,5.1249,5.127,5.1309,5.1369,5.1409,5.1466,5.1587,5.1596,5.1643,5.1659,5.1672,5.1685,5.1752,5.1774,5.1542,5.1542,5.1542,0,0,5.1007,5.1035,5.1076,5.1153,5.1181,5.1249,5.1181,5.1255,5.1305,5.126,5.1355,5.1372,5.1414,5.1525,5.1575,5.1543,5.1751,5.1685,5.1696,5.1701,5.1764,5.1786,5.1806,5.1549,5.1547,5.1546,0,0,5.1149,5.1176,5.1261,5.1292,5.1337,5.1342,5.1363,5.14,5.141,5.1505,5.1474,5.1533,5.1637,5.167,5.1699,5.1856,5.1829,5.1875,5.1959,5.2024,5.2042,5.2059,5.2115,5.2136,5.1887,5.1888,5.1888,0,5.1216,5.1316,5.1308,5.1385,5.142,5.1384,5.1471,5.1501,5.1561,5.1587,5.155,5.1682,5.1708,5.1827,5.1865,5.189,5.1914,5.187,5.2041,5.2057,5.2072,5.2126,5.2147,5.1893,5.1892,5.1892,5.1891,0,5.1398,5.1468,5.1531,5.1592,5.1635,5.1716,5.172,5.1764,5.1753,5.1762,5.1861,5.1891,5.1954,5.1982,5.197,5.21,5.2079,5.2042,5.1976,5.2099,5.215,5.217,5.1901,5.1899,5.1897,5.1896,0,0,5.1583,5.164,5.1663,5.1691,5.1739,5.1793,5.1873,5.1936,5.1975,5.2018,5.2086,5.2176,5.2143,5.2177,5.217,5.2227,5.2351,5.2183,5.2184,5.2214,5.2496,5.2524,5.2548,5.2333,5.2337,5.234,5.2493,0,5.1728,5.1868,5.1864,5.1995,5.2061,5.2029,5.2099,5.2136,5.2147,5.2204,5.2217,5.2282,5.2233,5.2253,5.2309,5.2324,5.2407,5.2313,5.2396,5.2399,5.2387,5.2574,5.2604,5.2746,5.2513,5.2516,5.2519,0,5.1915,5.1967,5.2105,5.2145,5.2172,5.2235,5.2293,5.2348,5.239,5.2395,5.2435,5.2418,5.25,5.2433,5.2546,5.2482,5.2516,5.2529,5.2534,5.2542,5.2466,5.2588,5.2792,5.2813,5.2549,5.2547,5.2545,0,5.2038,5.2142,5.2238,5.2263,5.2312,5.2357,5.2379,5.2417,5.2456,5.2507,5.2532,5.2592,5.2624,5.2671,5.2672,5.2622,5.2787,5.2719,5.2793,5.2793,5.2829,5.2826,5.3042,5.285,5.285,5.285,5.2849,0,5.2201,5.2287,5.2294,5.2353,5.2449,5.2444,5.2539,5.2556,5.2591,5.2653,5.2629,5.2688,5.2685,5.2745,5.2746,5.2841,5.2855,5.2861,5.2861,5.2864,5.2863,5.2886,5.2876,5.2855,5.2854,5.2853,5.2852,0,5.2353,5.2362,5.2465,5.2503,5.2515,5.2584,5.2617,5.2674,5.2684,5.2763,5.2781,5.2797,5.2867,5.2873,5.2953,5.2954,5.3068,5.3056,5.3055,5.3053,5.3126,5.312,5.3364,5.3396,5.3183,5.3185,5.3187,0,5.2457,5.2522,5.2568,5.2609,5.2634,5.27,5.274,5.2737,5.278,5.2834,5.2884,5.2952,5.3006,5.3119,5.3138,5.3199,5.3189,5.3271,5.3198,5.32,5.3191,5.3188,5.3194,5.3284,5.3287,5.3289,5.329,0,5.264,5.2641,5.27,5.2761,5.281,5.2857,5.2902,5.2936,5.294,5.2989,5.306,5.3103,5.3186,5.3253,5.3314,5.3337,5.3315,5.3313,5.3334,5.3338,5.3334,5.3338,5.3093,5.3307,5.3306,5.3304,5.3303,5.3303,5.2771,5.2829,5.2871,5.2937,5.2971,5.3014,5.3069,5.3087,5.3147,5.3215,5.321,5.329,5.3332,5.3411,5.3439,5.3502,5.3474,5.3503,5.3511,5.3518,5.3527,5.3324,5.3512,5.3512,5.3512,5.3511,5.3511,0,5.2954,5.2979,5.3041,5.3105,5.3158,5.3133,5.3182,5.3227,5.3298,5.3339,5.3393,5.3477,5.3543,5.3568,5.3632,5.3677,5.3669,5.3695,5.3691,5.3697,5.3547,5.3523,5.37,5.37,5.37,5.37,5.37,5.37,5.3055,5.3151,5.3158,5.3271,5.3296,5.3375,5.3405,5.3444,5.3477,5.3571,5.3627,5.3643,5.3678,5.3745,5.3805,5.3811,5.3836,5.3866,5.3867,5.3727,5.3707,5.3689,5.3667,5.3871,5.3872,5.4012,5.4014,5.4015]},{"header":{"parameterUnit":"m.s-1","parameterCategory":1,"la1":30.2991,"la2":30.254,"lo1":-89.0895,"lo2":-89.0444,"dy":0.0017,"dx":0.0017,"nx":28,"ny":28,"refTime":"2025-01-09T09:00:00:Z","depth":0,"parameterNumber":3,"parameterNumberName":"V-component_of_WINDS"},"data":[0,0,0,0,0,0,0,0,0,0,0,0,0,0,0,0,0,0,0,0,0,0,0,0,0,0,0,0,0,0,0,0,0,0,0,0,0,0,0,0,0,0,0,0,0,0,0,0,0,0,0,0,0,0,0,0,0,0,-5.4572,-5.4574,0,-5.4743,-5.4744,-5.4746,-5.4741,-5.4739,-5.4737,-5.4734,-5.4908,-5.4914,-5.4921,0,0,0,0,0,0,0,0,0,0,0,0,0,-5.4242,-5.4248,-5.4572,-5.4574,-5.4576,-5.4742,-5.4745,-5.4747,-5.4742,-5.4739,-5.4736,-5.4733,-5.4905,-5.4913,-5.4922,0,0,0,0,0,0,0,0,0,0,0,0,0,-5.4396,-5.425,-5.4572,-5.4594,-5.4597,-5.4742,-5.4745,-5.4747,-5.4742,-5.4739,-5.4735,-5.4732,-5.4903,-5.4913,-5.4923,-5.5056,0,0,-5.4954,-5.4958,0,0,0,0,0,0,0,0,-5.4387,-5.4408,-5.4588,-5.4592,-5.4597,-5.4717,-5.4692,-5.4851,-5.4743,-5.4687,-5.4734,-5.473,-5.4847,-5.4861,-5.4901,-5.5064,-5.5071,-5.4955,-5.4961,-5.4965,-5.4968,0,0,0,0,0,0,0,-5.4377,-5.4401,-5.4639,-5.4591,-5.4596,-5.4595,-5.4613,-5.4722,-5.4785,-5.4692,-5.4692,-5.4712,-5.4849,-5.4891,-5.4905,-5.5074,-5.4954,-5.4963,-5.497,-5.4974,-5.5356,-5.536,0,0,0,0,0,0,-5.4361,-5.4392,-5.4634,-5.4644,-5.4481,-5.4604,-5.4624,-5.4682,-5.4783,-5.4796,-5.4715,-5.4711,-5.4876,-5.4893,-5.4911,-5.5075,-5.4965,-5.4975,-5.4981,-5.5352,-5.5357,-5.5361,0,0,0,0,0,0,-5.4354,-5.4383,-5.4627,-5.4518,-5.4549,-5.4613,-5.4678,-5.4687,-5.473,-5.4801,-5.4812,-5.4747,-5.4874,-5.4897,-5.502,-5.5081,-5.4979,-5.4989,-5.5347,-5.5354,-5.5359,-5.5402,0,0,0,0,0,0,-5.4345,-5.4381,-5.4432,-5.452,-5.4555,-5.4734,-5.4682,-5.4693,-5.4748,-5.4744,-5.4834,-5.4846,-5.4873,-5.5005,-5.5031,-5.5093,-5.4997,-5.5342,-5.535,-5.5357,-5.5396,-5.5409,-5.5421,0,0,0,0,0,-5.4333,-5.4436,-5.4434,-5.4464,-5.4621,-5.4737,-5.4757,-5.4787,-5.4753,-5.4805,-5.4851,-5.4843,-5.507,-5.5018,-5.5046,-5.5113,-5.5339,-5.5348,-5.5357,-5.539,-5.5406,-5.542,0,0,0,0,0,0,-5.4353,-5.4448,-5.4447,-5.4582,-5.4652,-5.4736,-5.4802,-5.4803,-5.4883,-5.4877,-5.4909,-5.493,-5.5054,-5.5095,-5.5036,-5.5248,-5.52,-5.5215,-5.5216,-5.5232,-5.5244,-5.5231,-5.5005,0,0,0,0,0,-5.4373,-5.446,-5.4538,-5.465,-5.4685,-5.4738,-5.479,-5.4806,-5.488,-5.4909,-5.4964,-5.5035,-5.5123,-5.5179,-5.5264,-5.5402,-5.5422,-5.5462,-5.5474,-5.5484,-5.5497,-5.5574,-5.5593,-5.5391,-5.5391,-5.5391,0,0,-5.4416,-5.4478,-5.4531,-5.4656,-5.4711,-5.4801,-5.4763,-5.4858,-5.4925,-5.4923,-5.5044,-5.5087,-5.5168,-5.53,-5.5361,-5.5339,-5.5557,-5.5496,-5.5503,-5.551,-5.5585,-5.5604,-5.5621,-5.5397,-5.5396,-5.5395,0,0,-5.4538,-5.4595,-5.4694,-5.4751,-5.4837,-5.4872,-5.4896,-5.4981,-5.501,-5.5131,-5.5132,-5.5212,-5.5362,-5.542,-5.547,-5.5617,-5.5613,-5.5644,-5.5708,-5.5783,-5.5799,-5.5813,-5.5866,-5.5885,-5.5656,-5.5656,-5.5656,0,-5.458,-5.4715,-5.4745,-5.4842,-5.4897,-5.4901,-5.5002,-5.5056,-5.5165,-5.5203,-5.5177,-5.5366,-5.5421,-5.5567,-5.5604,-5.5643,-5.5672,-5.5633,-5.5794,-5.5809,-5.5823,-5.5874,-5.5894,-5.5659,-5.5659,-5.5659,-5.5658,0,-5.4762,-5.4856,-5.4926,-5.5032,-5.5095,-5.5194,-5.5239,-5.5299,-5.5311,-5.5349,-5.5473,-5.554,-5.5638,-5.5674,-5.5686,-5.5823,-5.5806,-5.5787,-5.574,-5.5845,-5.5893,-5.5913,-5.5664,-5.5663,-5.5662,-5.5661,0,0,-5.4902,-5.5024,-5.5049,-5.5098,-5.5194,-5.5267,-5.5366,-5.5463,-5.5514,-5.559,-5.5674,-5.5802,-5.5785,-5.5841,-5.586,-5.5926,-5.6039,-5.5899,-5.5901,-5.5923,-5.6195,-5.6209,-5.6231,-5.6037,-5.6041,-5.6044,-5.6188,0,-5.5035,-5.5211,-5.5242,-5.5397,-5.5484,-5.549,-5.5576,-5.5644,-5.5682,-5.5762,-5.5804,-5.5894,-5.5865,-5.5899,-5.5965,-5.6012,-5.6094,-5.6002,-5.6116,-5.612,-5.6096,-5.6257,-5.6272,-5.6404,-5.6207,-5.6211,-5.6213,0,-5.5214,-5.5295,-5.5458,-5.5543,-5.5581,-5.5658,-5.5751,-5.5827,-5.5904,-5.5928,-5.5991,-5.6003,-5.6107,-5.6055,-5.6199,-5.6135,-5.6184,-5.6214,-5.622,-5.6232,-5.6173,-5.6273,-5.6447,-5.6467,-5.6243,-5.6241,-5.6239,0,-5.53,-5.5449,-5.5567,-5.5608,-5.571,-5.5765,-5.581,-5.5884,-5.5941,-5.6022,-5.6059,-5.6151,-5.6201,-5.6272,-5.6308,-5.6267,-5.645,-5.6401,-5.6472,-5.6471,-5.651,-5.6507,-5.6694,-5.6541,-5.6541,-5.654,-5.654,0,-5.5446,-5.5545,-5.5607,-5.5679,-5.5792,-5.5826,-5.5937,-5.598,-5.6047,-5.6128,-5.6138,-5.6214,-5.6257,-5.634,-5.6369,-5.6484,-5.6506,-5.6528,-5.6535,-5.6528,-5.6525,-5.656,-5.6552,-5.6546,-5.6545,-5.6544,-5.6543,0,-5.556,-5.5606,-5.5734,-5.5821,-5.5845,-5.5924,-5.5998,-5.6069,-5.6107,-5.621,-5.6236,-5.6296,-5.6394,-5.6437,-5.6557,-5.6577,-5.6709,-5.6708,-5.6683,-5.6685,-5.6754,-5.6747,-5.6971,-5.7003,-5.6828,-5.6829,-5.6831,0,-5.565,-5.5728,-5.5823,-5.5878,-5.5925,-5.6014,-5.6073,-5.611,-5.6171,-5.6266,-5.6325,-5.6424,-5.6504,-5.666,-5.6715,-5.6807,-5.6809,-5.6881,-5.6823,-5.6814,-5.6811,-5.6806,-5.6814,-5.6892,-5.6893,-5.6895,-5.6896,0,-5.5806,-5.5825,-5.5909,-5.6002,-5.6072,-5.6147,-5.622,-5.6264,-5.6313,-5.6381,-5.6482,-5.6544,-5.6668,-5.6765,-5.6861,-5.6908,-5.6911,-5.6914,-5.6936,-5.6929,-5.6911,-5.6923,-5.6712,-5.6909,-5.6907,-5.6906,-5.6906,-5.6905,-5.5912,-5.5981,-5.6059,-5.6153,-5.6212,-5.6281,-5.6352,-5.64,-5.6484,-5.6588,-5.6605,-5.6713,-5.679,-5.6919,-5.697,-5.7054,-5.7037,-5.7068,-5.7076,-5.7083,-5.7087,-5.6898,-5.7072,-5.7071,-5.7071,-5.7071,-5.7071,0,-5.6068,-5.6119,-5.6205,-5.6308,-5.6382,-5.6379,-5.646,-5.6522,-5.6617,-5.6689,-5.6768,-5.6884,-5.6979,-5.7042,-5.7138,-5.7194,-5.7198,-5.7218,-5.7215,-5.7226,-5.7097,-5.7069,-5.7214,-5.7214,-5.7214,-5.7214,-5.7214,-5.7213,-5.6158,-5.6276,-5.6304,-5.6452,-5.6502,-5.6608,-5.6655,-5.6718,-5.6776,-5.6905,-5.6985,-5.7025,-5.7094,-5.7195,-5.7283,-5.7299,-5.7334,-5.7355,-5.737,-5.7249,-5.7234,-5.722,-5.7194,-5.7363,-5.7363,-5.7492,-5.7493,-5.7494]}]]